West Bend, WI

2:46 AM CDT on August 25, 2016 (GMT -0500)
West Bend Municipal

Weather History for KETB - July, 2014

Change the Weather History Date:

Wednesday, July 2, 2014

  Actual Average Record
Temperature  
Mean Temperature 58 °F -  
Max Temperature 64 °F 80 °F 95 °F (1934)
Min Temperature 53 °F 57 °F 42 °F (1924)
Degree Days  
Heating Degree Days 6    
Growing Degree Days 8 (Base 50)    
Moisture  
Dew Point 54 °F    
Average Humidity 86    
Maximum Humidity 94    
Minimum Humidity 72    
Precipitation  
Precipitation 0.04 in - - ()
Sea Level Pressure  
Sea Level Pressure 29.89 in    
Wind  
Wind Speed 9 mph (WSW)    
Max Wind Speed 16 mph    
Max Gust Speed 20 mph    
Visibility 8 miles    
Events Rain    
Averages and records for this station are not official NWS values.
T = Trace of Precipitation, MM = Missing Value Source: NWS Daily Summary

Daily Weather History Graph

Daily Weather History Graph

Search for Another Location

Airport or City:

Trip Planner

Search our weather history database for the weather conditions in past years. The results will help you decide how hot, cold, wet, or windy it might be!

Date:

Astronomy

Jul. 02, 2014 Rise Set
Actual Time 5:16 AM CDT 8:36 PM CDT
Civil Twilight 4:40 AM CDT 9:12 PM CDT
Nautical Twilight 3:54 AM CDT 9:58 PM CDT
Astronomical Twilight 2:57 AM CDT 10:55 PM CDT
Moon 10:28 AM CDT (7/2) 11:19 PM CDT (7/2)
Length of Visible Light 16h 31m
Length of Day
15h 20m
Waxing Crescent, 24% of the Moon is Illuminated
Jul 2
Waxing Crescent
Jul 5
First Quarter
Jul 12
Full
Jul 18
Last Quarter
Jul 26
New

Hourly Weather History & Observations

Time (CDT) Temp. Dew Point Humidity Pressure Visibility Wind Dir Wind Speed Gust Speed Precip Events Conditions
12:15 AM 64.4 °F 57.2 °F 77% 29.72 in 10.0 mi WSW 8.1 mph - N/A   Overcast
12:35 AM 64.4 °F 57.2 °F 77% 29.72 in 10.0 mi WSW 9.2 mph - N/A   Mostly Cloudy
12:55 AM 64.4 °F 57.2 °F 77% 29.73 in 10.0 mi WSW 9.2 mph - N/A   Mostly Cloudy
1:15 AM 64.4 °F 59.0 °F 83% 29.73 in 10.0 mi West 16.1 mph - N/A   Overcast
1:35 AM 62.6 °F 57.2 °F 82% 29.73 in 10.0 mi West 10.4 mph - N/A   Overcast
1:55 AM 62.6 °F 55.4 °F 77% 29.73 in 10.0 mi West 12.7 mph 16.1 mph N/A   Overcast
2:15 AM 62.6 °F 55.4 °F 77% 29.73 in 10.0 mi West 10.4 mph - N/A   Overcast
2:35 AM 62.6 °F 55.4 °F 77% 29.74 in 10.0 mi West 12.7 mph 17.3 mph N/A   Overcast
2:55 AM 60.8 °F 55.4 °F 82% 29.75 in 10.0 mi West 11.5 mph 19.6 mph N/A   Overcast
3:15 AM 60.8 °F 53.6 °F 77% 29.75 in 10.0 mi West 13.8 mph - N/A   Overcast
3:35 AM 60.8 °F 53.6 °F 77% 29.75 in 10.0 mi West 15.0 mph - N/A   Overcast
3:55 AM 60.8 °F 51.8 °F 72% 29.75 in 10.0 mi West 13.8 mph - N/A   Mostly Cloudy
4:15 AM 59.0 °F 51.8 °F 77% 29.75 in 10.0 mi West 12.7 mph - N/A   Scattered Clouds
4:35 AM 59.0 °F 51.8 °F 77% 29.76 in 10.0 mi West 11.5 mph - N/A   Mostly Cloudy
4:55 AM 59.0 °F 51.8 °F 77% 29.76 in 10.0 mi West 10.4 mph 16.1 mph N/A   Mostly Cloudy
5:15 AM 60.8 °F 51.8 °F 72% 29.77 in 10.0 mi West 9.2 mph - N/A   Overcast
5:35 AM 59.0 °F 51.8 °F 77% 29.78 in 10.0 mi West 10.4 mph 19.6 mph N/A   Overcast
5:55 AM 59.0 °F 51.8 °F 77% 29.78 in 10.0 mi West 10.4 mph - N/A   Overcast
6:15 AM 59.0 °F 51.8 °F 77% 29.79 in 10.0 mi WSW 10.4 mph 17.3 mph N/A   Overcast
6:35 AM 59.0 °F 53.6 °F 82% 29.80 in 7.0 mi West 9.2 mph - N/A   Overcast
6:55 AM 57.2 °F 53.6 °F 88% 29.80 in 3.0 mi West 11.5 mph - N/A   Overcast
7:15 AM 57.2 °F 53.6 °F 88% 29.81 in 4.0 mi WSW 9.2 mph - N/A   Overcast
7:35 AM 57.2 °F 53.6 °F 88% 29.81 in 2.5 mi West 11.5 mph - N/A   Overcast
7:55 AM 59.0 °F 53.6 °F 82% 29.82 in 2.0 mi West 10.4 mph - N/A   Overcast
8:15 AM 59.0 °F 55.4 °F 88% 29.83 in 2.5 mi West 10.4 mph - N/A   Overcast
8:35 AM 59.0 °F 55.4 °F 88% 29.83 in 2.5 mi West 11.5 mph 17.3 mph N/A   Overcast
8:55 AM 59.0 °F 55.4 °F 88% 29.83 in 3.0 mi West 9.2 mph - N/A   Overcast
9:15 AM 59.0 °F 55.4 °F 88% 29.84 in 4.0 mi West 11.5 mph - N/A   Light Drizzle
9:35 AM 59.0 °F 55.4 °F 88% 29.86 in 1.5 mi NNE 13.8 mph 18.4 mph 0.01 in Rain Heavy Rain
9:55 AM 53.6 °F 51.8 °F 94% 29.88 in 2.5 mi NNE 11.5 mph 18.4 mph 0.02 in Rain Rain
10:15 AM 53.6 °F 51.8 °F 94% 29.89 in 4.0 mi ENE 9.2 mph - N/A   Overcast
10:35 AM 53.6 °F 51.8 °F 94% 29.90 in 4.0 mi NE 6.9 mph - N/A   Overcast
10:55 AM 55.4 °F 53.6 °F 94% 29.91 in 3.0 mi ENE 8.1 mph - N/A   Overcast
11:15 AM 55.4 °F 53.6 °F 94% 29.91 in 10.0 mi NNE 6.9 mph - N/A   Overcast
11:35 AM 59.0 °F 53.6 °F 82% 29.91 in 10.0 mi ENE 10.4 mph - N/A   Overcast
11:55 AM 59.0 °F 53.6 °F 82% 29.91 in 10.0 mi NNE 9.2 mph - N/A   Overcast
12:15 PM 59.0 °F 53.6 °F 82% 29.92 in 10.0 mi ENE 10.4 mph - N/A   Overcast
12:35 PM 59.0 °F 51.8 °F 77% 29.93 in 7.0 mi NE 4.6 mph - N/A   Overcast
12:55 PM 59.0 °F 53.6 °F 82% 29.94 in 2.5 mi NNE 5.8 mph - N/A Rain Light Rain
1:15 PM 59.0 °F 53.6 °F 82% 29.94 in 10.0 mi ENE 3.5 mph - N/A   Overcast
1:35 PM 59.0 °F 53.6 °F 82% 29.95 in 7.0 mi ESE 4.6 mph - N/A   Overcast
1:55 PM 59.0 °F 53.6 °F 82% 29.95 in 10.0 mi SSE 3.5 mph - N/A   Overcast
2:15 PM 57.2 °F 51.8 °F 82% 29.96 in 10.0 mi ESE 6.9 mph - N/A   Overcast
2:35 PM 55.4 °F 51.8 °F 88% 29.97 in 10.0 mi ESE 5.8 mph - N/A   Overcast
2:55 PM 55.4 °F 51.8 °F 88% 29.97 in 10.0 mi East 6.9 mph - N/A   Overcast
3:15 PM 53.6 °F 51.8 °F 94% 29.98 in 2.0 mi ESE 4.6 mph - N/A   Drizzle
3:35 PM 53.6 °F 51.8 °F 94% 29.99 in 2.5 mi ESE 3.5 mph - 0.01 in   Drizzle
3:55 PM 53.6 °F 51.8 °F 94% 29.99 in 1.2 mi East 4.6 mph - 0.01 in   Drizzle
4:15 PM 53.6 °F 51.8 °F 94% 29.99 in 1.8 mi East 4.6 mph - N/A   Drizzle
4:35 PM 53.6 °F 51.8 °F 94% 29.99 in 2.5 mi ESE 3.5 mph - 0.01 in   Light Drizzle
5:35 PM 55.4 °F 51.8 °F 88% 30.00 in 4.0 mi Calm Calm - N/A   Overcast
5:55 PM 55.4 °F 51.8 °F 88% 30.00 in 4.0 mi SW 3.5 mph - N/A   Overcast
6:15 PM 55.4 °F 53.6 °F 94% 29.99 in 4.0 mi SSW 4.6 mph - N/A   Overcast
6:35 PM 55.4 °F 53.6 °F 94% 30.00 in 10.0 mi SSW 4.6 mph - N/A   Overcast
6:55 PM 55.4 °F 53.6 °F 94% 30.00 in 10.0 mi SW 3.5 mph - N/A   Overcast
7:15 PM 55.4 °F 53.6 °F 94% 30.01 in 10.0 mi Calm Calm - N/A   Overcast
7:35 PM 55.4 °F 53.6 °F 94% 30.01 in 10.0 mi Calm Calm - N/A   Overcast
7:55 PM 55.4 °F 53.6 °F 94% 30.01 in 10.0 mi Calm Calm - N/A   Overcast
8:15 PM 55.4 °F 53.6 °F 94% 30.01 in 10.0 mi Calm Calm - N/A   Overcast
8:35 PM 55.4 °F 53.6 °F 94% 30.01 in 10.0 mi Calm Calm - N/A   Overcast
8:55 PM 55.4 °F 53.6 °F 94% 30.02 in 10.0 mi South 4.6 mph - N/A   Overcast
9:15 PM 55.4 °F 53.6 °F 94% 30.02 in 10.0 mi SW 4.6 mph - N/A   Overcast
9:35 PM 55.4 °F 53.6 °F 94% 30.02 in 10.0 mi SW 4.6 mph - N/A Rain Light Rain
9:55 PM 55.4 °F 53.6 °F 94% 30.03 in 10.0 mi SW 5.8 mph - N/A   Overcast
10:15 PM 55.4 °F 53.6 °F 94% 30.03 in 10.0 mi SW 3.5 mph - N/A   Overcast
10:35 PM 55.4 °F 53.6 °F 94% 30.03 in 10.0 mi SW 3.5 mph - N/A   Overcast
10:55 PM 55.4 °F 53.6 °F 94% 30.03 in 10.0 mi Calm Calm - N/A   Mostly Cloudy
11:15 PM 57.2 °F 53.6 °F 88% 30.02 in 10.0 mi Calm Calm - N/A   Scattered Clouds
11:35 PM 57.2 °F 53.6 °F 88% 30.03 in 10.0 mi Calm Calm - N/A   Clear
11:55 PM 55.4 °F 53.6 °F 94% 30.03 in 10.0 mi WSW 4.6 mph - N/A   Clear